Stafford, VA

4:39 AM EDT on July 27, 2017 (GMT -0400)
Stafford

Weather History for KRMN - January, 2014

Change the Weather History Date:

Thursday, January 9, 2014

  Actual Average (KNYG) Record (KNYG)
Temperature  
Mean Temperature 32 °F -  
Max Temperature 41 °F 42 °F 66 °F (2006)
Min Temperature 23 °F 27 °F 12 °F (2017)
Degree Days  
Heating Degree Days 33    
Moisture  
Dew Point 23 °F    
Average Humidity 72    
Maximum Humidity 99    
Minimum Humidity 50    
Precipitation  
Precipitation 0.00 in - - ()
Sea Level Pressure  
Sea Level Pressure 30.61 in    
Wind  
Wind Speed 1 mph (East)    
Max Wind Speed 9 mph    
Max Gust Speed -    
Visibility 10 miles    
Events      
Averages and records for this station are not official NWS values.
T = Trace of Precipitation, MM = Missing Value Source: NWS Daily Summary

Daily Weather History Graph

Daily Weather History Graph

Search for Another Location

Airport or City:

Trip Planner

Search our weather history database for the weather conditions in past years. The results will help you decide how hot, cold, wet, or windy it might be!

Date:

Astronomy

Jan. 09, 2014 Rise Set
Actual Time 7:27 AM EST 5:07 PM EST
Civil Twilight 6:57 AM EST 5:36 PM EST
Nautical Twilight 6:24 AM EST 6:09 PM EST
Astronomical Twilight 5:53 AM EST 6:41 PM EST
Moon 12:31 PM EST (1/9) 1:34 AM EST (1/9)
Length of Visible Light 10h 38m
Length of Day
9h 40m
Waxing Gibbous, 66% of the Moon is Illuminated
Jan 9
Waxing Gibbous
Jan 15
Full
Jan 24
Last Quarter
Jan 30
New
Feb 6
First Quarter

Hourly Weather History & Observations

Time (EST) Temp. Windchill Dew Point Humidity Pressure Visibility Wind Dir Wind Speed Gust Speed Precip Events Conditions
12:15 AM 25.7 °F - 21.0 °F 82% 30.53 in 10.0 mi Calm Calm - N/A   Overcast
12:35 AM 27.3 °F - 21.0 °F 77% 30.53 in 10.0 mi Calm Calm - N/A   Overcast
12:55 AM 26.6 °F - 22.6 °F 85% 30.52 in 10.0 mi Calm Calm - N/A   Overcast
1:15 AM 25.9 °F - 21.9 °F 85% 30.52 in 10.0 mi Calm Calm - N/A   Mostly Cloudy
1:35 AM 26.1 °F - 21.0 °F 81% 30.53 in 10.0 mi Calm Calm - N/A   Scattered Clouds
1:55 AM 25.7 °F - 21.2 °F 83% 30.53 in 10.0 mi Calm Calm - N/A   Clear
2:15 AM 26.1 °F - 21.0 °F 81% 30.53 in 10.0 mi Calm Calm - N/A   Clear
2:35 AM 25.3 °F - 21.2 °F 84% 30.54 in 10.0 mi Calm Calm - N/A   Clear
2:55 AM 25.0 °F - 21.0 °F 85% 30.55 in 10.0 mi Calm Calm - N/A   Clear
3:15 AM 25.7 °F - 21.6 °F 84% 30.55 in 10.0 mi Calm Calm - N/A   Clear
3:35 AM 25.7 °F - 21.4 °F 84% 30.56 in 10.0 mi Calm Calm - N/A   Clear
3:55 AM 27.0 °F - 21.4 °F 79% 30.56 in 10.0 mi Calm Calm - N/A   Scattered Clouds
4:15 AM 26.8 °F - 20.8 °F 78% 30.56 in 10.0 mi Calm Calm - N/A   Scattered Clouds
4:35 AM 26.8 °F - 21.4 °F 80% 30.57 in 10.0 mi Calm Calm - N/A   Scattered Clouds
4:55 AM 26.2 °F - 21.2 °F 81% 30.58 in 10.0 mi Calm Calm - N/A   Scattered Clouds
5:15 AM 25.5 °F - 22.1 °F 87% 30.58 in 10.0 mi Calm Calm - N/A   Scattered Clouds
5:35 AM 25.3 °F - 21.4 °F 85% 30.58 in 10.0 mi Calm Calm - N/A   Clear
5:55 AM 24.8 °F - 20.7 °F 84% 30.58 in 10.0 mi Calm Calm - N/A   Clear
6:15 AM 24.6 °F - 21.4 °F 87% 30.58 in 10.0 mi Calm Calm - N/A   Clear
6:35 AM 24.4 °F - 21.7 °F 89% 30.59 in 10.0 mi Calm Calm - N/A   Clear
6:55 AM 24.8 °F - 20.7 °F 84% 30.59 in 10.0 mi Calm Calm - N/A   Scattered Clouds
7:15 AM 23.4 °F - 23.2 °F 99% 30.61 in 10.0 mi Calm Calm - N/A   Overcast
7:35 AM 23.5 °F 19.1 °F 20.5 °F 88% 30.62 in 10.0 mi NW 3.5 mph - N/A   Mostly Cloudy
7:55 AM 23.7 °F - 21.0 °F 89% 30.64 in 10.0 mi Calm Calm - N/A   Scattered Clouds
8:15 AM 24.8 °F - 21.6 °F 87% 30.65 in 10.0 mi Calm Calm - N/A   Scattered Clouds
8:35 AM 26.6 °F 22.6 °F 21.9 °F 82% 30.65 in 10.0 mi North 3.5 mph - N/A   Scattered Clouds
8:55 AM 29.5 °F - 20.5 °F 69% 30.66 in 10.0 mi Calm Calm - N/A   Scattered Clouds
9:15 AM 31.1 °F - 20.8 °F 66% 30.67 in 10.0 mi Calm Calm - N/A   Overcast
9:35 AM 32.0 °F - 21.6 °F 65% 30.68 in 10.0 mi Calm Calm - N/A   Overcast
9:55 AM 32.7 °F 28.3 °F 21.0 °F 62% 30.69 in 10.0 mi NE 4.6 mph - N/A   Overcast
10:15 AM 34.3 °F 31.4 °F 20.5 °F 57% 30.69 in 10.0 mi ENE 3.5 mph - N/A   Mostly Cloudy
10:35 AM 35.6 °F 28.6 °F 20.1 °F 53% 30.69 in 10.0 mi ENE 9.2 mph - N/A   Scattered Clouds
10:55 AM 35.8 °F 29.4 °F 20.8 °F 55% 30.68 in 10.0 mi ENE 8.1 mph - N/A   Clear
11:15 AM 36.7 °F 29.9 °F 21.9 °F 55% 30.68 in 10.0 mi East 9.2 mph - N/A   Scattered Clouds
11:35 AM 37.6 °F 33.1 °F 22.8 °F 55% 30.66 in 10.0 mi East 5.8 mph - N/A   Mostly Cloudy
11:55 AM 38.3 °F 34.8 °F 23.4 °F 55% 30.65 in 10.0 mi East 4.6 mph - N/A   Mostly Cloudy
12:15 PM 38.5 °F 35.0 °F 23.0 °F 54% 30.64 in 10.0 mi NE 4.6 mph - N/A   Scattered Clouds
12:35 PM 39.7 °F 37.6 °F 23.9 °F 53% 30.63 in 10.0 mi ENE 3.5 mph - N/A   Clear
12:55 PM 39.4 °F 36.1 °F 23.7 °F 54% 30.62 in 10.0 mi East 4.6 mph - N/A   Clear
1:15 PM 40.3 °F 37.1 °F 24.6 °F 54% 30.61 in 10.0 mi SE 4.6 mph - N/A   Clear
1:35 PM 40.5 °F 37.3 °F 24.6 °F 53% 30.61 in 10.0 mi SE 4.6 mph - N/A   Clear
1:55 PM 40.3 °F 37.1 °F 24.3 °F 53% 30.61 in 10.0 mi SE 4.6 mph - N/A   Clear
2:15 PM 41.2 °F 36.6 °F 24.1 °F 51% 30.60 in 10.0 mi ENE 6.9 mph - N/A   Mostly Cloudy
2:35 PM 41.7 °F 39.8 °F 25.0 °F 52% 30.60 in 10.0 mi ESE 3.5 mph - N/A   Overcast
2:55 PM 40.8 °F 35.0 °F 24.3 °F 52% 30.61 in 10.0 mi East 9.2 mph - N/A   Mostly Cloudy
3:35 PM 40.8 °F 36.2 °F 23.9 °F 51% 30.61 in 10.0 mi East 6.9 mph - N/A   Mostly Cloudy
3:55 PM 40.5 °F 36.5 °F 23.2 °F 50% 30.63 in 10.0 mi East 5.8 mph - N/A   Overcast
4:15 PM 39.7 °F 34.9 °F 22.5 °F 50% 30.62 in 10.0 mi East 6.9 mph - N/A   Mostly Cloudy
4:35 PM 38.3 °F 32.5 °F 22.3 °F 53% 30.62 in 10.0 mi East 8.1 mph - N/A   Clear
4:55 PM 36.3 °F - 22.6 °F 58% 30.61 in 10.0 mi Calm Calm - N/A   Clear
5:15 PM 35.2 °F 30.3 °F 22.5 °F 60% 30.61 in 10.0 mi East 5.8 mph - N/A   Clear
6:15 PM 34.9 °F 29.9 °F 24.1 °F 65% 30.61 in 10.0 mi East 5.8 mph - N/A   Clear
6:35 PM 34.7 °F 30.6 °F 24.1 °F 65% 30.61 in 10.0 mi ESE 4.6 mph - N/A   Clear
6:55 PM 34.7 °F 31.8 °F 24.3 °F 66% 30.61 in 10.0 mi East 3.5 mph - N/A   Clear
7:15 PM 34.7 °F 31.8 °F 24.3 °F 66% 30.62 in 10.0 mi East 3.5 mph - N/A   Clear
7:35 PM 33.6 °F - 23.9 °F 68% 30.63 in 10.0 mi Calm Calm - N/A   Clear
7:55 PM 32.0 °F - 23.0 °F 69% 30.62 in 10.0 mi Calm Calm - N/A   Clear
8:15 PM 29.3 °F - 23.4 °F 78% 30.63 in 10.0 mi Calm Calm - N/A   Clear
8:35 PM 30.0 °F - 24.8 °F 81% 30.63 in 10.0 mi Calm Calm - N/A   Clear
8:55 PM 29.3 °F - 23.9 °F 80% 30.64 in 10.0 mi Calm Calm - N/A   Clear
9:15 PM 29.8 °F - 24.4 °F 80% 30.64 in 10.0 mi Calm Calm - N/A   Clear
9:35 PM 30.0 °F - 23.5 °F 77% 30.64 in 10.0 mi Calm Calm - N/A   Clear
9:55 PM 30.9 °F - 24.4 °F 77% 30.63 in 10.0 mi Calm Calm - N/A   Clear
10:15 PM 30.9 °F - 24.6 °F 77% 30.62 in 10.0 mi Calm Calm - N/A   Clear
10:35 PM 30.2 °F - 25.7 °F 83% 30.62 in 10.0 mi Calm Calm - N/A   Clear
10:55 PM 30.4 °F - 24.6 °F 79% 30.61 in 10.0 mi Calm Calm - N/A   Clear
11:15 PM 30.2 °F - 25.2 °F 82% 30.60 in 10.0 mi Calm Calm - N/A   Clear
11:35 PM 31.1 °F - 24.8 °F 77% 30.58 in 10.0 mi Calm Calm - N/A   Clear
11:55 PM 30.0 °F - 25.7 °F 84% 30.58 in 10.0 mi Calm Calm - N/A   Clear